Terminal Aerodrome Forecast
Issued by NWS Wilmington, OH

Current Version | Previous Version | Text Only | Print | Product List | Glossary Off
Versions: 1 2 3 4 5 6 7 8 9 10 11 12 13 14 15 16 17 18 19 20 21 22 23

000
FTUS41 KILN 221200 AAA
TAFCMH
TAF AMD
KCMH 221218Z 2212/2312 32008KT P6SM BKN015 OVC022
     FM222100 34006KT P6SM OVC025
     FM230300 VRB03KT P6SM BKN025=

USA.gov is the U.S. government's official web portal to all federal, state and local government web resources and services.